sat.trackr.live / text

‹ back to catalog

SAMSAT-IONOSPHERE (RS7*)

NORAD 61784 · 2024-199BB

PAYLOAD ACTIVE UNKNOWN

§ Identity

Operator
Country
CIS
Launch date
2024-11-04
Launch site
VOSTO
Launch vehicle
Mass (kg)
RCS (m²)

Purposes: comms

External: N2YO · Heavens-Above · Gunter

§ Orbital elements

Epoch: 2026-05-25T04:09:37.120320Z

Period
92.58 min
Inclination
97.2987°
Eccentricity
0.0008820
Mean motion
15.55403577 rev/d
Perigee alt
395.0 km
Apogee alt
407.0 km
Semi-major
6,779.1 km
B*
6.3255e-4
RAAN
20.5520°
Arg perigee
22.1377°
Mean anomaly
338.0257°
Rev number
13,398

§ Raw data

SAMSAT-IONOSPHERE (RS7*)1 61784U 24199BB  26145.17334630  .00043172  00000+0  63255-3 0  99962 61784  97.2987  20.5520 0008820  22.1377 338.0257 15.55403577133988

JSON: /api/v1/satellites/61784 · /tle

For live sub-satellite position, see the globe view (requires WebGL).

§ Visibility from observer

Set your observer location to see the next 7 days of passes ≥ 10°. The values pass through the URL so the page stays shareable.

No JS? Fill the form by hand. The geolocation button needs JavaScript.

§ Radio — SatNOGS DB

ModeDescriptionDownlinkUplink
FSK FSK1k2 - AX.25 Beacon 437.400 MHz

1 transmitter · refreshed weekly from db.satnogs.org